TimeEST,TemperatureF,Dew PointF,Humidity,Sea Level PressureIn,VisibilityMPH,Wind Direction,Wind SpeedMPH,Gust SpeedMPH,PrecipitationIn,Events,Conditions,WindDirDegrees,DateUTC
12:53 AM,39.9,34.0,79,29.94,6.0,ESE,15.0,-,N/A,,Haze,120,2012-12-20 05:53:00
1:53 AM,39.9,34.0,79,29.85,4.0,ESE,16.1,27.6,0.01,Rain,Light Rain,110,2012-12-20 06:53:00
2:53 AM,41.0,35.1,79,29.76,5.0,East,20.7,32.2,0.00,,Haze,100,2012-12-20 07:53:00
3:44 AM,39.2,35.6,87,29.77,2.5,ESE,17.3,23.0,0.04,Rain,Light Rain,120,2012-12-20 08:44:00
3:51 AM,39.2,35.6,87,29.77,3.0,ESE,12.7,24.2,0.06,Rain,Rain,120,2012-12-20 08:51:00
3:53 AM,39.9,36.0,86,29.78,3.0,ESE,12.7,24.2,0.06,Rain,Rain,120,2012-12-20 08:53:00
4:53 AM,39.9,36.0,86,29.72,4.0,ESE,19.6,26.5,0.06,Rain,Light Rain,120,2012-12-20 09:53:00
5:53 AM,41.0,37.0,86,29.66,3.0,ESE,21.9,31.1,0.03,Rain,Light Rain,120,2012-12-20 10:53:00
6:11 AM,41.0,37.4,87,29.62,2.5,ESE,17.3,28.8,0.05,Rain,Rain,110,2012-12-20 11:11:00
6:24 AM,41.0,37.4,87,29.60,3.0,ESE,19.6,27.6,0.08,Rain,Light Rain,110,2012-12-20 11:24:00
7:02 AM,41.0,37.4,87,29.54,2.5,ESE,19.6,32.2,0.04,Rain,Rain,110,2012-12-20 12:02:00
7:53 AM,39.9,37.0,89,29.51,2.0,ESE,19.6,32.2,0.21,Rain,Rain,110,2012-12-20 12:53:00
8:25 AM,41.0,37.4,87,29.48,3.0,ESE,21.9,29.9,0.07,Rain,Rain,120,2012-12-20 13:25:00
8:32 AM,41.0,37.4,87,29.47,2.5,ESE,21.9,29.9,0.09,Rain,Rain,120,2012-12-20 13:32:00
8:41 AM,41.0,37.4,87,29.48,3.0,ESE,24.2,31.1,0.11,Rain,Rain,110,2012-12-20 13:41:00
8:47 AM,41.0,37.4,87,29.49,2.5,ESE,21.9,34.5,0.14,Rain,Rain,120,2012-12-20 13:47:00
8:53 AM,41.0,37.9,89,29.49,2.0,ESE,24.2,31.1,0.16,Rain,Rain,120,2012-12-20 13:53:00
9:43 AM,41.0,37.4,87,29.45,3.0,ESE,24.2,31.1,0.06,Rain,Light Rain,110,2012-12-20 14:43:00
9:53 AM,41.0,37.0,86,29.47,2.5,ESE,19.6,29.9,0.07,Rain,Light Rain,120,2012-12-20 14:53:00
10:22 AM,41.0,37.4,87,29.36,3.0,ESE,27.6,39.1,0.03,Rain,Light Rain,110,2012-12-20 15:22:00
10:48 AM,42.8,37.4,81,29.35,5.0,ESE,26.5,36.8,0.03,,Overcast,120,2012-12-20 15:48:00
10:53 AM,42.1,39.0,89,29.36,5.0,ESE,24.2,34.5,0.03,,Overcast,120,2012-12-20 15:53:00
11:53 AM,45.0,41.0,86,29.26,7.0,SE,25.3,35.7,0.00,,Overcast,130,2012-12-20 16:53:00
12:53 PM,46.9,43.0,86,29.24,9.0,SSE,19.6,28.8,N/A,,Overcast,150,2012-12-20 17:53:00
1:30 PM,48.2,44.6,87,29.18,10.0,SE,17.3,24.2,N/A,,Overcast,140,2012-12-20 18:30:00
1:53 PM,50.0,46.0,86,29.17,7.0,SE,19.6,27.6,0.00,Rain,Light Rain,140,2012-12-20 18:53:00
2:31 PM,48.2,46.4,93,29.14,2.5,SE,13.8,-,0.02,Rain,Rain,140,2012-12-20 19:31:00
2:35 PM,48.2,46.4,93,29.13,1.8,SE,11.5,20.7,0.04,Rain,Rain,140,2012-12-20 19:35:00
2:43 PM,50.0,46.4,87,29.12,3.0,SE,13.8,23.0,0.05,Rain,Light Rain,140,2012-12-20 19:43:00
2:53 PM,50.0,46.0,86,29.12,8.0,SE,16.1,24.2,0.05,Rain,Light Rain,140,2012-12-20 19:53:00
3:00 PM,51.8,46.4,82,29.11,10.0,SSE,17.3,25.3,0.00,,Overcast,150,2012-12-20 20:00:00
3:38 PM,50.0,46.4,87,29.13,1.5,SW,27.6,33.4,0.10,Rain,Rain,230,2012-12-20 20:38:00
3:43 PM,46.4,42.8,87,29.12,1.2,SW,20.7,33.4,0.12,Rain,Light Rain,230,2012-12-20 20:43:00
3:49 PM,44.6,42.8,93,29.13,4.0,SW,18.4,27.6,0.13,Rain,Light Rain,220,2012-12-20 20:49:00
3:53 PM,45.0,41.0,86,29.13,5.0,SW,17.3,27.6,0.14,Rain,Light Rain,220,2012-12-20 20:53:00
4:50 PM,46.4,41.0,81,29.12,10.0,SSW,15.0,26.5,0.00,,Overcast,200,2012-12-20 21:50:00
4:53 PM,46.0,41.0,83,29.13,10.0,SW,13.8,26.5,0.00,,Overcast,230,2012-12-20 21:53:00
5:31 PM,42.8,35.6,76,29.15,10.0,SW,20.7,33.4,0.02,Rain,Light Rain,220,2012-12-20 22:31:00
5:53 PM,43.0,36.0,76,29.16,10.0,SSW,21.9,29.9,0.03,Rain,Light Rain,200,2012-12-20 22:53:00
6:53 PM,39.9,30.9,70,29.16,10.0,SSW,16.1,-,0.00,,Overcast,200,2012-12-20 23:53:00
7:27 PM,39.2,30.2,70,29.15,10.0,South,11.5,23.0,N/A,,Overcast,190,2012-12-21 00:27:00
7:53 PM,37.0,30.0,76,29.17,10.0,South,17.3,31.1,N/A,,Overcast,190,2012-12-21 00:53:00
8:15 PM,35.6,28.4,75,29.17,10.0,SSW,20.7,-,N/A,,Overcast,200,2012-12-21 01:15:00
8:24 PM,35.6,28.4,75,29.17,10.0,SSW,18.4,28.8,N/A,,Overcast,200,2012-12-21 01:24:00
8:53 PM,35.1,30.0,82,29.18,10.0,South,15.0,-,N/A,,Overcast,190,2012-12-21 01:53:00
9:27 PM,35.6,30.2,81,29.16,10.0,SSW,10.4,-,N/A,,Overcast,200,2012-12-21 02:27:00
9:53 PM,34.0,30.9,89,29.18,3.0,SSW,9.2,-,0.00,,Overcast,200,2012-12-21 02:53:00
10:20 PM,33.8,32.0,93,29.16,10.0,SSW,10.4,-,N/A,,Overcast,200,2012-12-21 03:20:00
10:53 PM,34.0,30.9,89,29.17,2.5,SW,13.8,-,0.00,Snow,Light Snow,230,2012-12-21 03:53:00
11:27 PM,35.6,32.0,87,29.16,4.0,WSW,13.8,-,0.00,,Overcast,240,2012-12-21 04:27:00
11:53 PM,36.0,33.1,89,29.17,6.0,WSW,18.4,25.3,0.01,Rain,Light Rain,250,2012-12-21 04:53:00